This is the latest recevied weather packets stored in our database for station/object KB9HUO. If no packets are shown the sender has not sent any weather packets the latest 10 day(s).
| Time | Temp. | Humidity | Pressure | Rain* | Wind** | Luminosity | Snow |
|---|---|---|---|---|---|---|---|
| 1777491203 | 18.33° C | 60% | 1013.8 hPa | 0 mm | - | 188 W/m² | - |
| 1777490898 | 18.33° C | 59% | 1013.8 hPa | 0 mm | - | 161 W/m² | - |
| 1777490595 | 18.89° C | 59% | 1013.5 hPa | 0 mm | - | 147 W/m² | - |
| 1777490290 | 18.89° C | 59% | 1013.7 hPa | 0 mm | - | 329 W/m² | - |
| 1777489988 | 18.89° C | 58% | 1013.6 hPa | 0 mm | - | 231 W/m² | - |
| 1777489686 | 18.89° C | 60% | 1013.5 hPa | 0 mm | - | 617 W/m² | - |
| 1777489382 | 18.89° C | 58% | 1013.5 hPa | 0 mm | - | 192 W/m² | - |
| 1777489079 | 18.89° C | 65% | 1013.4 hPa | 0 mm | - | 658 W/m² | - |
| 1777488776 | 18.33° C | 64% | 1013.5 hPa | 0 mm | - | 560 W/m² | - |
| 1777488474 | 18.33° C | 63% | 1013.4 hPa | 0 mm | - | 191 W/m² | - |
| 1777488172 | 18.33° C | 62% | 1013.5 hPa | 0 mm | - | 208 W/m² | - |
| 1777487869 | 18.89° C | 62% | 1013.7 hPa | 0 mm | - | 224 W/m² | - |
| 1777487567 | 18.89° C | 64% | 1013.6 hPa | 0 mm | - | 378 W/m² | - |
| 1777487263 | 18.89° C | 59% | 1013.4 hPa | 0 mm | - | 246 W/m² | - |
| 1777486960 | 19.44° C | 58% | 1013.4 hPa | 0 mm | - | 271 W/m² | - |
| 1777486656 | 18.33° C | 62% | 1013.4 hPa | 0 mm | - | 849 W/m² | - |
| 1777486355 | 17.78° C | 65% | 1013.6 hPa | 0 mm | - | 751 W/m² | - |
| 1777486052 | 17.78° C | 65% | 1013.6 hPa | 0 mm | - | 140 W/m² | - |
| 1777485748 | 18.33° C | 64% | 1013.6 hPa | 0 mm | - | 164 W/m² | - |
| 1777485444 | 18.89° C | 65% | 1013.4 hPa | 0 mm | - | 188 W/m² | - |
| 1777485140 | 18.89° C | 65% | 1013.3 hPa | 0 mm | - | 310 W/m² | - |
| 1777484837 | 18.33° C | 67% | 1013.5 hPa | 0 mm | - | 926 W/m² | - |
| 1777484534 | 17.78° C | 68% | 1013.5 hPa | 0 mm | - | 256 W/m² | - |
| 1777484231 | 18.89° C | 63% | 1013.6 hPa | 0 mm | - | 185 W/m² | - |
| 1777483927 | 18.33° C | 71% | 1013.6 hPa | 0 mm | - | 671 W/m² | - |
* Rain latest hour (hover to see other rain measurements)
** Current wind speed in m/s (hover to see current wind gust speed)